カタログに戻る

SL-14 R/B

運用中PO
NORAD 12849·ROCKET BODY·🇷🇺 Russia

打ち上げ Sep 21, 1981 から Plesetsk Cosmodrome

Loading…

次のパス (今後24時間)

TLE

最新Source: Space-Track

元期: Sep 14, 2026, 21:52 UTC

1 12849U 81094B   26257.91140483  .00000686  00000-0  61404-4 0  9997
2 12849  82.4829  85.0489 0866494 300.7107  51.1426 13.58489105198414

AllMySatでSL-14 R/Bをリアルタイム追跡

Download on the App Store